Flag for Gibraltar Weather past 2 weeks in Gibraltar, Gibraltar

Now
70 °F

Passing clouds.


Feels Like: 70 °F
Forecast: 69 / 77 °F
Wind: 12 mph from East

Location: Gibraltar Airport

Current Time: Aug 29, 2015 at 8:52:32 AM

Latest Report: Aug 29, 2015 at 7:50 AM


Visibility: N/A

Pressure: 30.01 "Hg

Humidity: 94%

Dew point: 68 °F

Location of GibraltarLocation

Historic Weather in Gibraltar — Graph

°F

Gibraltar temperature yesterday

Maximum temperature yesterday: 77 °F (at 3:50 PM)
Minimum temperature yesterday: 68 °F (at 1:50 AM)
Average temperature yesterday: 72 °F

Past Weeks' High & Low Weather Summary

 TemperatureHumidityPressure
High82 °F (Aug 17, 5:50 PM)100% (Aug 20, 3:50 AM)30.12 "Hg (Aug 20, 3:50 AM)
Low66 °F (Aug 20, 3:50 AM)30% (Aug 23, 3:50 PM)29.83 "Hg (Aug 17, 7:50 PM)
Average73 °F73%29.99 "Hg
* Reported Aug 14 6:50 AM — Aug 29 6:50 AM, Gibraltar, Weather by CustomWeather, © 2015

Note: Actual official high and low records may vary slightly from our data, if they occured in-between our weather recording intervals... More about our weather records

Advertising

Gibraltar weather history for previous 24 hours

 ConditionsComfort  
Time TempWeatherWind HumidityBarometerVisibility
6:50 AM
Sat, Aug 29
72 °FPartly cloudy.10 mph88%30.01 "HgN/A
5:50 AM70 °FPartly cloudy.13 mph94%30.01 "HgN/A
4:50 AM72 °FPassing clouds.12 mph88%30.01 "HgN/A
3:50 AM72 °FPassing clouds.15 mph94%30.01 "HgN/A
2:50 AM73 °FPartly cloudy.18 mph89%30.04 "HgN/A
1:50 AM73 °FPassing clouds.16 mph83%30.04 "HgN/A
12:50 AM73 °FPassing clouds.15 mph83%30.04 "HgN/A
11:50 PM
Fri, Aug 28
73 °FPassing clouds.17 mph89%30.01 "HgN/A
10:50 PM73 °FPassing clouds.15 mph83%30.01 "HgN/A
9:50 PM73 °FPassing clouds.13 mph83%29.98 "HgN/A
8:50 PM75 °FPassing clouds.15 mph78%29.95 "HgN/A
7:50 PM77 °FPassing clouds.16 mph79%29.95 "HgN/A
6:50 PM77 °FPassing clouds.16 mph74%29.95 "HgN/A
5:50 PM73 °FHaze.9 mph89%29.98 "Hg6 mi
4:50 PM75 °FHaze.12 mph83%29.98 "Hg6 mi
3:50 PM77 °FHaze.12 mph79%30.01 "Hg6 mi
2:50 PM73 °FSleet. Scattered clouds.9 mph83%30.01 "Hg5 mi
1:50 PM73 °FSleet. Fog.9 mph83%30.01 "Hg5 mi
12:50 PM72 °FSleet. Fog.10 mph88%30.01 "Hg4 mi
11:50 AM72 °FSleet. Partly sunny.10 mph94%30.01 "Hg4 mi
10:50 AM70 °FSleet. Partly sunny.7 mph100%30.01 "Hg2 mi
9:50 AM70 °FSleet. Partly sunny.6 mph94%30.01 "Hg1 mi
8:50 AM70 °FFog.7 mph94%29.98 "Hg1 mi
Weather by CustomWeather, © 2015

See weather overviewHow to use our weather pages